Showing default

SJ-29A, 67302

Orbit data source: Space-Track

SJ-29A, 67302 is a payload satellite owned by PLA SSF (CN) in GEO that was launched on Tue, 30 Dec 2025 UTC via a CHANG ZHENG 7A launch vehicle from the Wenchang Satellite Launch Center (WSC). Payload-class satellites include a variety of spacecraft equipped with specific instruments for various scientific and technological missions. These include communications satellites like Starlink; space stations such as the ISS; scientific satellites like the Hubble; Earth observation satellites from companies like Planet Labs, Umbra, and HawkEye 360; GPS; miniature CubeSats for education and research; and military/defense satellites.

Not visible in the next 10 days
Identifier
67302, 2025-315A
Orbit
GEO
Country
Flag of CNCN / PRC
Related business
Manufacturer
SAST
Mission
Operational Defense Technology
Bus & Motor
SJ29, LAE
Mass
~6,000 kg wet, ~4,000 kg dry
Launch date (UTC)
2025-12-30 (6 months ago)
Launch vehicle
CHANG ZHENG 7A
Launch site
Wenchang Satellite Launch Center (WSC)
Object type
Payload
Rocket body
Debris
Shape & HBR
Box + 2 Pan, 1.1 m
Radar Cross Section
30.713 m², Large (>1 m²)

Expand to show TLE details & history
Last TLE update: 12 hours ago

TLE from 12 hours ago
0 SJ-29A
1 67302U 25315A   26171.40649869 -.00000072  00000-0  00000+0 0  9996
2 67302   3.4070  95.0285 0003269  23.8001   9.2958  1.00270205  1659
Epoch: 2026-06-20T09:45Z
TLE epoch observation values (Epoch: 2026-06-20T09:45:21.486Z)
Latitude
1.87986°
Longitude
73.13815°
Altitude
35,772.685 km
Speed
3.076 km/s
True Right ascension
08h 32m 23s
True Declination
1° 52' 41"
Sunlit
Object was in daylight at epoch
Visualization orbit readout
Latitude
Unknown
Longitude
Unknown
Altitude
Unknown
Speed
Unknown
Apparent Right ascension
Unknown
Apparent Declination
Unknown
Sunlit
N/A
Visualization observer readout
Local Sidereal Time
08:32:42
Azimuth
Unknown
Elevation
Unknown
Doppler factor
Unknown
Orbital elements
Apogee altitude
35,801.887 km
Perigee altitude
35,774.319 km
Semi-major axis
42,166.24 km
Eccentricity
0.00033
Inclination
3.407°
RAAN
95.0285°
Arg. of periapsis
23.8001°
True anomaly
9.30185°
Mean anomaly
9.2958°
Eccentric anomaly
9.29883°
Mean motion
0.25067 °/min
Orbital period
1,436.17 mins
BSTAR
0
Loading maneuver chart data...
Computing Atmospheric mass density...
Loading historical data...
Loading historical data...
Loading historical data...
Loading historical data...
Loading historical data...
Loading historical data...
Loading historical data...
Other satellites on launch #315 in the year 2025 (2025-12-30 UTC)

Documentation

Showing up to 5 results
|